User: anonymous   Login
Location: Unspecified
(0.0000°N, 0.0000°E)
Time: 22:34:59
(UTC+00:00)
Language:

CAS-4B - Orbit

View from above orbital plane
View from above orbital plane
View from above satellite
View from above satellite

Ground track
Ground track

The orbit data is extracted from the following two-line orbital elements,

1 42759U 17034B   18263.37423885  .00000175  00000-0  24335-4 0  9996
2 42759  43.0198 280.6814 0010700 337.9930 153.4471 15.09370111 69834
Epoch (UTC): 20 September 2018 08:58:54
Eccentricity: 0.0010700
inclination: 43.0198°
perigee height: 531 km
apogee height: 545 km
right ascension of ascending node: 280.6814°
argument of perigee: 337.9930°
revolutions per day: 15.09370111
mean anomaly at epoch: 153.4471°
orbit number at epoch: 6983

The dashed part of the orbit path shows where the satellite is in the earth's shadow,  

DLR